DW7110 Weather Reports


Display with metric or nautical units.
time (UTC)temp
F
wind
direction
speed
MPH
gust
MPH
rain 1hr
in
rain 24hr
in
rain mn
in
humidity
%
barometer
mb
20260509014502 56 1 0.0 4.0 0.00 0.00 0.00 80 1016.9
20260509013104 56 1 0.0 6.0 0.00 0.00 0.00 79 1016.8
20260509011600 57 1 2.0 5.0 0.00 0.00 0.00 77 1016.7
20260509004600 58 1 0.0 5.0 0.00 0.00 0.00 77 1016.6
20260509003106 58 1 0.0 0.0 0.00 0.00 0.00 76 1016.5
20260509001558 59 1 0.0 2.0 0.00 0.00 0.00 76 1016.4
20260509000110 59 1 0.0 3.0 0.00 0.00 0.00 73 1016.3
20260508234559 60 1 0.0 0.0 0.00 0.00 0.00 73 1015.9
20260508233056 60 1 0.0 0.0 0.00 0.00 0.00 74 1016.1
20260508231558 61 1 0.0 3.0 0.00 0.00 0.00 74 1016.2
20260508230105 62 1 0.0 3.0 0.00 0.00 0.00 69 1016.0
20260508224552 62 1 1.0 6.0 0.00 0.00 0.00 69 1016.0
20260508223050 63 1 0.0 4.0 0.00 0.00 0.00 66 1016.0
20260508221549 63 1 0.0 7.0 0.00 0.00 0.00 68 1015.9
20260508220049 64 1 0.0 2.0 0.00 0.00 0.00 70 1015.9
20260508214548 65 1 0.0 4.0 0.00 0.00 0.00 67 1015.8
20260508213047 65 1 0.0 6.0 0.00 0.00 0.00 62 1015.7
20260508211546 65 1 0.0 4.0 0.00 0.00 0.00 65 1015.9
20260508210046 65 1 0.0 5.0 0.00 0.00 0.00 60 1015.6
20260508204544 65 1 0.0 3.0 0.00 0.00 0.00 64 1015.6
20260508203042 65 1 0.0 8.0 0.00 0.00 0.00 61 1015.8
20260508201543 65 1 0.0 5.0 0.00 0.00 0.00 56 1015.9
20260508200040 65 1 1.0 5.0 0.00 0.00 0.00 57 1016.1
20260508194610 65 1 0.0 8.0 0.00 0.00 0.00 63 1016.1
20260508193038 67 1 3.0 7.0 0.00 0.00 0.00 57 1016.6
20260508191538 67 1 1.0 8.0 0.00 0.00 0.00 61 1016.9
20260508190038 68 1 2.0 5.0 0.00 0.00 0.00 58 1017.1
20260508184536 68 1 2.0 9.0 0.00 0.00 0.00 56 1017.2
20260508183034 67 1 3.0 7.0 0.00 0.00 0.00 59 1017.4
20260508181550 67 1 1.0 5.0 0.00 0.00 0.00 59 1017.6
20260508180030 65 1 2.0 7.0 0.00 0.00 0.00 58 1017.7
20260508174530 65 1 0.0 6.0 0.00 0.00 0.00 56 1017.9
20260508173037 66 1 2.0 6.0 0.00 0.00 0.00 58 1018.0
20260508171532 65 1 2.0 9.0 0.00 0.00 0.00 56 1018.4
20260508170027 64 1 1.0 7.0 0.00 0.00 0.00 58 1018.8
20260508164524 65 1 0.0 4.0 0.00 0.00 0.00 50 1018.8
20260508163022 64 1 1.0 7.0 0.00 0.00 0.00 47 1019.1
20260508161524 62 1 1.0 7.0 0.00 0.00 0.00 58 1019.3
20260508160018 60 1 0.0 5.0 0.00 0.00 0.00 67 1019.5
20260508154509 59 1 1.0 8.0 0.00 0.00 0.00 63 1019.5
20260508153008 59 1 1.0 5.0 0.00 0.00 0.00 70 1019.6
20260508151505 57 1 0.0 2.0 0.00 0.00 0.00 73 1019.8
20260508144557 55 1 0.0 0.0 0.00 0.00 0.00 86 1019.7
20260508143055 53 1 0.0 0.0 0.00 0.00 0.00 88 1019.8
20260508141553 52 1 0.0 0.0 0.00 0.00 0.00 89 1020.0
20260508140047 50 1 0.0 0.0 0.00 0.00 0.00 91 1020.2
20260508134542 49 1 0.0 0.0 0.00 0.00 0.00 91 1020.2
20260508133055 47 1 0.0 0.0 0.00 0.00 0.00 92 1020.3
20260508131545 47 1 0.0 0.0 0.00 0.00 0.00 92 1020.3
20260508130039 46 1 0.0 0.0 0.00 0.00 0.00 93 1020.1
20260508124538 45 1 0.0 0.0 0.00 0.03 0.00 93 1020.1
20260508123051 44 1 0.0 0.0 0.00 0.03 0.00 92 1020.0
20260508121543 43 1 0.0 0.0 0.00 0.03 0.00 91 1019.7
20260508120033 43 1 0.0 0.0 0.00 0.03 0.00 91 1019.6
20260508114531 43 1 0.0 0.0 0.00 0.05 0.00 90 1019.3
20260508113031 43 1 0.0 0.0 0.00 0.05 0.00 90 1019.0
20260508111528 44 1 0.0 0.0 0.00 0.05 0.00 90 1018.8
20260508110026 44 1 0.0 0.0 0.00 0.05 0.00 89 1018.4
20260508104523 44 1 0.0 0.0 0.00 0.14 0.00 89 1018.2
20260508103022 44 1 0.0 1.0 0.00 0.14 0.00 88 1018.0
20260508101520 44 1 0.0 0.0 0.00 0.14 0.00 89 1017.8
20260508100019 44 1 0.0 0.0 0.00 0.14 0.00 90 1017.6
20260508094515 44 1 0.0 0.0 0.00 0.14 0.00 88 1017.4
20260508093020 45 1 0.0 0.0 0.00 0.14 0.00 88 1017.2
20260508091514 45 1 0.0 0.0 0.00 0.14 0.00 87 1017.1
20260508090009 46 1 0.0 0.0 0.00 0.14 0.00 86 1017.0
20260508084506 46 1 0.0 0.0 0.00 0.14 0.00 86 1016.9
20260508083005 47 1 0.0 0.0 0.00 0.14 0.00 85 1016.8
20260508081505 47 1 0.0 0.0 0.00 0.14 0.00 84 1016.9
20260508080003 47 1 0.0 0.0 0.00 0.14 0.00 83 1016.6
20260508074501 47 1 0.0 4.0 0.00 0.27 0.00 85 1016.6
20260508073100 48 1 0.0 3.0 0.00 0.27 0.00 81 1016.5
20260508071601 48 1 0.0 5.0 0.00 0.27 0.00 82 1016.4
20260508070106 47 1 2.0 5.0 0.00 0.27 0.00 83 1016.5
20260508064554 46 1 1.0 3.0 0.00 0.27 0.00 88 1016.5
20260508063056 46 1 2.0 5.0 0.00 0.27 0.00 89 1016.3
20260508061552 47 1 0.0 0.0 0.00 0.27 0.00 89 1016.5
20260508060055 47 1 0.0 0.0 0.00 0.27 0.00 89 1016.4
20260508054553 47 1 0.0 2.0 0.00 0.37 0.00 88 1016.4
20260508053054 47 1 0.0 0.0 0.00 0.37 0.00 88 1016.4
20260508051547 47 1 0.0 0.0 0.00 0.37 0.00 88 1016.5
20260508050046 47 1 0.0 0.0 0.00 0.37 0.00 88 1016.5
20260508044600 48 1 0.0 1.0 0.00 0.48 0.00 88 1016.2
20260508043046 48 1 0.0 0.0 0.00 0.48 0.00 88 1016.3
20260508041540 48 1 0.0 0.0 0.00 0.48 0.00 86 1016.3
20260508040037 48 1 0.0 0.0 0.00 0.48 0.00 87 1016.3
20260508034543 49 1 0.0 0.0 0.00 0.50 0.48 87 1016.2
20260508033034 49 1 0.0 0.0 0.00 0.50 0.48 86 1016.2
20260508031533 49 1 0.0 0.0 0.00 0.50 0.48 86 1016.3
20260508030037 50 1 0.0 0.0 0.00 0.50 0.48 85 1016.3
20260508024534 50 1 0.0 0.0 0.00 0.50 0.48 85 1016.1
20260508023030 50 1 0.0 0.0 0.00 0.50 0.48 83 1016.0
20260508021525 51 1 0.0 0.0 0.00 0.50 0.48 83 1015.7
20260508020020 51 1 0.0 0.0 0.00 0.50 0.48 79 1015.5